Location: Dzierzno
(50.6159°N, 19.2852°E)
Time: 02:29:35
(UTC+00:00)

BREEZE-M DEB (TANK) - Pass Details

Date: 18 November 2025
Orbit: 285 x 18366 km, 52.5° (Epoch: 03 December)

Event Time Altitude Azimuth Distance (km) Brightness Sun altitude
Rises 15:38:13 0° 211° (SSW) 1,948 6.6 -7.3°
Reaches altitude 10° 15:39:45 10° 195° (SSW) 1,247 5.2 -7.5°
Maximum altitude 15:41:47 27° 132° (SE) 898 3.7 -7.8°
Enters shadow 15:45:42 10° 74° (ENE) 2,476 5.4 -8.4°
